Location: Kuffner-Sternwarte
(48.2130°N, 16.2960°E)
Time: 00:29:35
(UTC+02:00)

DELFI C3 - Visible Passes

Search period start: 16 June 2019 00:00
Search period end: 26 June 2019 00:00
Orbit: 536 x 555 km, 97.5° (Epoch: 14 June)

Date Brightness Start Highest point End Pass type
(mag) Time Alt. Az. Time Alt. Az. Time Alt. Az.
16 Jun ? 21:57:32 10° SSW 22:00:53 26° W 22:04:15 10° NW visible
17 Jun ? 21:51:42 10° SSW 21:55:10 30° W 21:58:40 10° NNW visible
18 Jun ? 21:45:52 10° SSW 21:49:28 34° W 21:53:05 10° NNW visible
19 Jun ? 21:40:04 10° SSW 21:43:45 39° W 21:47:28 10° NNW visible
